Wind_Speed
3 4 3 4 4 2 1 2 2 3 4 7 5 6 6 5 7 9 8 8 6 8 7 4 9 18 19 20 20 17 18 17 14 13 12 14 16 17 19 20 19 20 20 20
5 4 6 3 3 4 4 3 4 3 3 9 8 8 6 5 3 3 6 7 5 5 3 1 5 7 11 20 15 12 12 10 8 8 8 10 13 15 17 18 18 18 18 18
5 4 3 3 1 2 3 4 3 4 4 7 8 4 4 4 3 4 5 3 5 6 5 3 2 1 8 15 13 10 8 5 6 7 9 12 11 13 15 16 17 19 18 18
4 5 4 2 3 5 1 5 3 2 3 3 2 2 2 1 4 4 5 5 6 6 5 10 14 7 2 7 8 10 7 6 6 7 6 8 12 14 13 14 15 16 17 16
6 2 2 2 4 5 7 3 2 1 2 4 2 5 2 5 3 5 6 6 7 6 5 6 11 16 13 7 9 8 7 6 6 5 7 10 13 12 11 11 12 15 16 16
7 1 3 8 5 4 2 4 6 4 3 2 2 5 4 6 7 5 5 6 6 5 4 1 2 10 11 10 10 10 8 8 8 9 12 12 12 10 10 12 15 16 14 15
2 3 3 3 5 2 5 5 3 4 3 4 2 1 4 7 10 9 9 8 7 5 5 3 6 8 11 12 12 13 9 10 11 13 12 11 11 12 13 14 15 15 15 16
3 2 1 3 5 7 4 6 5 2 2 3 3 2 2 2 5 8 6 7 7 6 5 4 7 7 10 12 15 14 12 13 13 13 14 13 12 12 13 12 11 12 13 14
3 2 3 2 3 6 3 2 4 6 3 3 2 3 1 4 5 7 8 7 6 6 5 5 10 12 12 15 16 16 17 17 16 16 15 13 11 10 11 11 11 12 12 14
4 2 3 2 3 6 3 5 3 3 2 2 3 3 5 6 11 8 10 9 7 5 5 5 11 13 15 18 21 20 19 19 16 15 13 12 10 10 10 10 12 12 12 14
2 3 4 2 5 1 2 2 6 4 3 4 1 5 6 14 15 18 14 12 11 9 7 6 11 17 21 22 23 22 20 18 15 12 10 9 9 9 9 10 11 12 12 15
2 4 2 2 2 2 1 3 5 4 3 1 4 6 2 6 12 14 12 13 11 10 9 11 12 18 20 22 21 20 17 15 12 10 9 9 8 8 8 9 11 11 12 14
0 2 2 6 5 4 2 2 5 5 3 5 5 5 1 2 7 10 13 13 12 10 9 11 13 14 19 19 19 18 15 14 12 10 9 9 7 6 7 8 10 10 11 15
5 3 5 6 4 2 1 2 4 4 3 3 6 5 4 3 7 8 11 14 14 13 12 10 11 14 20 19 19 17 15 13 12 11 9 7 6 5 5 7 8 10 13 16
3 3 2 3 1 1 4 4 5 5 5 6 7 9 7 7 10 13 10 13 15 14 13 11 10 15 21 21 19 18 16 14 13 11 8 6 4 3 5 7 9 12 15 15
2 1 2 3 5 4 5 4 7 7 6 6 7 18 7 6 6 9 14 16 17 16 14 13 16 18 22 23 22 19 18 16 12 10 7 4 2 3 6 6 10 14 15 16
2 5 3 3 3 5 7 8 10 4 5 5 8 10 5 7 9 12 14 17 17 16 16 15 19 23 25 24 22 20 18 16 13 9 6 2 2 5 5 8 12 14 15 18
2 3 2 2 2 2 4 3 3 5 9 7 9 8 7 6 2 3 6 13 13 13 13 15 21 24 25 21 19 18 17 16 13 8 4 0 4 5 4 9 12 13 16 17
5 4 1 2 2 6 6 3 4 2 10 7 9 5 2 4 3 2 5 8 12 11 18 21 28 28 26 22 20 18 17 16 12 8 4 2 4 4 5 9 11 13 15 17
6 4 3 3 3 4 5 4 2 4 6 5 1 3 6 4 2 4 9 7 8 16 22 24 27 27 26 23 21 20 20 17 13 9 5 4 5 4 6 8 10 12 13 15
3 2 5 3 4 6 5 5 2 3 7 2 3 6 7 5 4 2 8 5 14 19 22 24 29 31 29 26 23 23 20 17 12 9 6 5 5 5 5 6 9 11 13 16
7 5 4 2 2 11 6 2 7 7 3 3 4 6 8 3 3 4 6 7 14 17 22 27 29 30 28 27 25 23 21 16 13 10 7 6 5 5 5 6 8 9 13 16
3 6 5 8 6 3 5 7 5 4 5 4 4 6 8 7 7 7 6 7 14 21 24 28 29 28 27 27 27 25 20 18 15 11 8 6 5 5 6 5 8 10 13 16
3 4 4 1 5 8 7 5 5 6 7 5 7 7 9 9 8 7 5 6 13 21 24 28 26 26 28 28 27 23 20 18 14 11 9 7 6 6 5 5 6 8 12 16
5 6 6 5 6 7 8 8 9 8 8 7 5 8 12 8 6 7 8 11 18 22 25 31 30 29 30 30 27 23 21 18 15 11 9 8 7 6 5 5 7 9 10 10
5 7 5 7 8 6 7 4 4 7 8 7 6 4 5 10 9 12 9 19 22 23 25 26 27 28 30 30 27 25 22 18 15 12 11 10 8 5 5 7 9 9 10 12
Wind_Direction
22 69 200 205 182 148 218 250 259 272 275 73 43 74 60 58 82 102 92 88 99 84 87 123 127 112 119 101 101 110 115 115 112 113 103 101 82 71 71 66 59 51 44 39
22 253 218 202 201 201 188 222 268 294 301 91 84 56 74 73 29 68 99 85 99 95 74 237 107 129 125 106 109 118 111 111 100 89 92 98 94 79 75 63 55 47 37 30
166 245 104 184 284 173 208 192 228 195 348 64 112 45 34 4 94 86 73 93 100 143 187 192 74 354 110 110 119 113 105 99 85 80 96 104 84 77 67 51 44 34 27 24
235 262 219 146 231 137 264 213 208 187 97 203 137 223 352 133 131 140 164 178 169 196 203 201 138 127 144 109 122 106 96 83 86 88 92 76 79 77 57 45 36 30 26 34
246 203 136 134 203 170 225 163 195 222 137 115 5 84 261 137 162 188 185 185 216 210 206 241 183 168 157 157 133 124 114 99 95 96 88 90 88 76 61 44 37 41 40 34
245 301 197 203 219 181 91 98 42 52 85 42 296 135 237 188 186 162 176 183 176 172 114 65 185 163 152 161 144 138 129 108 102 109 104 98 89 79 61 51 46 40 31 25
301 246 253 161 160 85 75 59 351 355 21 216 301 67 255 185 165 177 167 164 138 112 88 72 94 134 154 160 150 146 134 113 116 114 104 96 91 81 71 56 44 32 24 20
153 330 267 164 174 165 176 151 151 235 200 258 346 255 265 195 139 127 132 129 114 101 79 69 83 105 138 155 150 145 135 126 125 115 109 105 95 79 69 55 40 34 32 28
145 279 322 63 139 123 184 131 180 107 34 65 272 303 15 111 137 143 144 138 130 122 104 78 83 96 119 140 145 145 139 126 121 117 111 98 87 72 61 52 45 40 29 22
203 104 14 342 48 40 125 148 75 12 154 252 286 268 225 191 199 178 167 165 156 137 126 107 99 107 119 133 138 139 135 127 122 116 105 94 77 65 58 48 46 35 21 15
117 105 291 37 29 169 38 77 54 105 124 171 215 257 215 194 192 189 183 172 165 162 155 136 127 127 126 134 135 131 129 126 117 108 98 86 77 69 60 46 36 22 11 10
332 129 143 200 258 236 160 151 137 122 226 102 140 275 276 214 192 182 180 169 164 163 155 146 142 129 134 135 133 131 128 124 116 110 100 89 82 72 53 35 22 15 8 4
173 14 41 351 351 351 99 94 99 109 80 194 140 258 23 98 166 178 164 166 164 157 151 149 150 145 149 146 140 135 133 129 124 120 110 101 86 67 48 23 15 7 2 354
79 110 163 192 202 196 155 157 113 123 121 182 229 280 271 176 189 167 166 169 165 164 165 163 157 162 161 159 150 147 144 141 136 132 118 99 79 56 30 12 10 2 354 351
86 167 173 209 218 268 228 198 174 184 195 177 254 224 232 212 205 200 171 158 162 171 170 171 171 171 170 167 163 161 154 152 151 140 124 99 79 35 358 3 360 351 350 354
340 273 37 312 324 343 285 251 225 237 240 242 261 268 209 249 137 162 182 173 180 176 173 174 177 175 177 176 175 169 166 164 161 149 132 114 81 352 352 355 350 344 348 349
10 128 80 253 349 348 300 232 224 211 198 182 220 254 200 214 209 202 190 187 182 175 178 180 179 182 183 183 180 175 173 169 168 158 146 137 7 345 343 344 343 343 346 343
113 93 108 218 36 269 258 263 218 228 259 236 265 260 232 247 238 192 176 177 177 176 179 179 178 183 185 181 180 176 175 176 174 168 170 283 334 330 326 337 341 341 341 341
155 126 111 186 220 297 309 343 97 50 295 230 223 217 172 151 78 353 159 176 185 187 184 182 185 186 181 179 179 179 177 180 180 183 202 279 305 308 321 333 337 338 337 337
93 101 150 143 165 250 244 239 179 116 296 319 188 186 165 162 105 255 184 168 166 180 185 183 187 182 180 180 182 181 181 184 188 194 212 261 285 289 314 328 331 336 336 335
105 21 191 167 236 282 244 262 214 94 245 301 203 183 179 202 204 207 138 143 187 186 185 186 182 182 186 183 184 184 185 193 195 197 214 246 270 287 309 322 330 337 340 333
160 183 193 151 238 268 175 96 164 213 259 242 209 209 204 156 152 143 156 160 168 167 175 184 180 187 187 187 188 188 193 193 194 201 217 239 265 285 293 315 333 340 342 339
223 184 189 188 212 248 213 208 222 167 223 242 213 211 178 182 204 181 182 177 178 179 178 186 185 188 189 192 196 193 195 193 195 203 221 237 253 266 298 312 332 338 345 343
250 165 199 100 229 235 248 259 249 205 224 239 232 187 175 197 191 196 174 175 181 186 185 189 190 186 191 197 201 208 196 194 200 211 224 233 244 254 299 311 328 336 340 336
194 145 189 252 279 273 263 234 236 249 239 246 219 193 206 196 201 188 191 192 196 193 192 193 190 192 197 198 201 202 197 197 203 215 223 227 238 258 291 307 326 329 330 323
185 185 176 235 224 201 235 237 212 223 232 229 201 207 201 194 215 192 211 202 197 193 194 195 195 196 200 197 198 197 198 201 208 215 220 227 232 259 287 308 321 328 326 324
Height
811 826 832 824 822 822 825 831 832 821 809 832 842 844 846 841 840 838 837 841 846 846 850 858 856 848 852 850 851 859 860 863 866 868 869 869 869 871 870 870 871 871 871 870
823 831 818 814 818 823 827 829 830 821 812 833 845 853 847 843 845 846 845 848 852 851 855 860 858 858 856 850 856 862 863 865 867 868 868 870 872 873 872 874 874 874 873 872
827 818 809 813 817 822 824 828 826 827 818 831 838 854 855 851 848 849 850 852 854 855 858 859 860 863 860 854 858 862 865 867 867 869 870 871 873 874 874 875 874 873 873 872
820 810 810 813 817 819 824 814 814 818 832 844 826 863 853 853 853 853 853 855 855 857 857 854 853 859 864 862 864 863 866 868 869 870 871 871 872 874 875 876 876 875 874 872
818 809 810 815 813 811 821 809 814 816 828 836 836 859 856 852 855 855 854 855 856 855 856 857 853 851 857 864 865 866 868 870 871 872 873 873 874 876 876 877 875 875 874 873
814 802 804 809 806 806 805 813 828 835 842 857 841 851 858 854 848 851 853 852 854 856 857 858 856 856 859 863 865 867 870 872 873 874 874 874 875 877 877 877 876 875 875 874
812 809 801 799 810 805 814 830 856 856 862 862 842 848 845 841 841 842 848 853 855 858 859 859 857 857 859 862 866 869 872 874 876 875 874 875 876 877 877 877 878 877 875 874
828 830 804 798 807 816 819 826 856 853 863 856 839 848 846 834 839 843 847 853 856 858 860 860 858 857 860 863 866 869 873 875 876 875 875 877 878 878 878 878 878 878 877 875
824 818 798 797 795 801 819 831 824 848 854 859 857 845 839 841 844 847 851 855 858 860 862 860 859 858 861 864 867 870 873 875 876 876 877 878 878 879 879 879 879 879 878 875
811 822 806 800 797 804 809 817 839 850 854 859 859 854 848 849 845 848 850 854 859 861 863 863 861 862 864 866 868 872 874 875 877 877 878 879 880 880 880 880 879 879 878 876
807 818 818 806 819 820 821 827 838 843 857 870 879 861 832 829 829 835 842 848 855 859 862 864 865 864 864 870 871 871 874 876 878 879 880 880 881 881 880 880 879 878 878 875
812 825 832 820 813 813 813 820 830 861 851 875 880 860 820 823 823 826 837 845 853 857 859 863 866 865 869 870 871 872 874 875 878 879 880 880 881 881 881 881 879 877 876 874
811 830 845 833 827 815 816 819 832 841 853 859 868 850 820 819 825 826 834 842 849 855 859 860 865 865 868 871 871 872 874 876 878 879 880 881 881 881 880 879 878 876 875 872
815 829 834 848 832 828 825 822 828 837 865 855 854 834 818 825 827 829 833 838 845 851 855 859 862 865 868 870 871 873 874 876 877 879 879 880 881 881 879 878 876 875 873 870
819 830 828 828 825 825 823 824 827 832 835 845 831 834 819 816 822 820 826 835 841 847 852 855 860 864 867 869 870 872 874 876 877 878 878 879 880 880 878 876 874 873 871 867
823 835 832 853 835 833 832 827 830 831 829 832 830 821 810 807 814 820 822 828 833 838 844 850 857 861 864 866 868 869 871 874 876 876 876 877 878 878 876 873 872 871 868 866
828 835 848 841 839 838 843 831 822 820 821 819 829 808 808 810 812 811 815 820 824 831 837 843 849 854 858 861 864 866 869 871 873 874 874 875 875 875 874 872 870 868 866 863
830 836 849 847 842 854 818 815 814 819 816 815 812 808 806 806 807 807 810 816 823 828 833 838 843 848 853 858 861 864 865 868 870 871 872 872 872 872 871 869 868 866 864 861
824 839 848 846 860 834 814 812 813 813 814 804 806 804 809 811 808 809 810 812 815 819 824 830 835 842 848 853 858 861 863 866 867 868 869 870 870 869 868 867 866 864 861 859
832 833 842 860 855 848 823 809 807 810 827 803 803 809 813 811 826 813 808 810 814 818 823 827 833 839 844 849 854 857 860 862 864 865 866 868 868 866 865 864 863 861 859 857
840 850 850 854 838 823 813 807 806 829 827 802 805 808 812 812 809 802 805 810 813 816 820 824 830 833 839 845 850 853 856 858 860 862 863 864 865 863 861 861 860 858 856 854
828 839 839 840 837 825 803 805 817 810 801 799 801 805 806 804 807 806 807 810 812 814 819 823 827 831 837 842 846 849 852 855 858 860 861 861 861 860 859 858 857 855 853 851
824 821 830 829 820 803 801 798 796 797 798 796 799 798 802 806 806 806 807 810 811 812 816 820 824 829 835 838 842 845 848 852 855 857 858 858 857 857 856 854 853 852 850 848
810 811 816 818 805 802 798 796 794 793 794 790 791 793 797 797 799 802 805 808 810 812 814 818 823 826 830 834 839 842 845 850 853 854 855 855 854 854 853 851 850 849 848 846
808 809 810 813 803 798 794 790 786 786 787 787 786 787 790 793 796 797 801 803 805 807 810 812 816 820 825 830 835 840 843 846 849 851 851 851 851 851 850 849 848 846 845 844
802 801 812 798 790 787 785 779 779 782 781 782 785 785 786 789 790 792 795 794 797 801 805 810 812 816 821 827 831 836 839 843 846 847 848 848 848 847 846 845 844 844 842 840